Date String (YYYY-MM-DD hh:mm:ss) UTC,Instrument flags,absolute air pressure of the measurement (hPa),sample flow rate (lpm),inlet stack bypass flow (lpm),air temperature of the measurement (°C),ambient temperature measured by the external sensor (°C),aerosol sample conditioner tube jacket temperature (°C),OPC LED temperature (°C),internal box temperature (°C),relative humidity of the measurement (%),span deviation,mass concentration of particles derived from Lorenz-Mie calculation of OPC scattering (μg/m³),mass concentration of particles derived from Lorenz-Mie calculation of OPC scattering (μg/m³),mass concentration of particles derived from Lorenz-Mie calculation of OPC scattering (μg/m³)
DateTimeUTC,F1_M11,P_M11,Q1_M11,Q2_M11,T1_M11,T2_M11,T3_M11,T4_M11,T5_M11,U1_M11,ZSPAN_M11,X0_M11,X2_M11,X1_M11
2024-05-05 16:00:00,SystemResetWarning,0821.8,5.00,000.00,024.0,023.4,000.0,032.3,025.7,024.0,0000.0,0018.33,0004.32,0003.39
2024-05-05 16:01:00,SystemResetWarning,0821.8,4.99,000.00,024.0,023.4,000.0,032.3,025.7,024.1,0000.0,0016.95,0004.35,0003.39
2024-05-05 16:02:00,SystemResetWarning,0821.8,5.00,000.00,024.0,023.4,000.0,032.3,025.7,023.9,0000.0,0016.72,0004.38,0003.41
2024-05-05 16:03:00,SystemResetWarning,0821.7,5.00,000.00,024.0,023.4,000.0,032.3,025.7,023.9,0000.0,0017.08,0004.45,0003.42
2024-05-05 16:04:00,SystemResetWarning,0821.8,5.00,000.00,024.0,023.4,000.0,032.3,025.7,024.2,0000.0,0017.25,0004.45,0003.44
2024-05-05 16:05:00,SystemResetWarning,0821.8,5.00,000.00,024.0,023.4,000.0,032.3,025.7,024.3,0000.0,0016.48,0004.48,0003.45
2024-05-05 16:06:00,SystemResetWarning,0821.8,5.01,000.00,024.0,023.4,000.0,032.3,025.7,024.3,0000.0,0015.00,0004.56,0003.46
2024-05-05 16:07:00,SystemResetWarning,0821.8,5.00,000.00,024.0,023.4,000.0,032.3,025.7,024.3,0000.0,0014.14,0004.56,0003.47
2024-05-05 16:08:00,SystemResetWarning,0821.8,5.01,000.00,024.0,023.5,000.0,032.3,025.8,024.3,0000.0,0013.78,0004.52,0003.46
2024-05-05 16:09:00,SystemResetWarning,0821.7,5.00,000.00,024.1,023.5,000.0,032.3,025.8,024.3,0000.0,0013.31,0004.54,0003.46
2024-05-05 16:10:00,SystemResetWarning,0821.7,5.00,000.00,024.1,023.5,000.0,032.3,025.8,024.4,0000.0,0012.49,0004.55,0003.46
2024-05-05 16:11:00,SystemResetWarning,0821.7,4.99,000.00,024.1,023.5,000.0,032.3,025.8,024.5,0000.0,0012.25,0004.56,0003.45
2024-05-05 16:12:00,SystemResetWarning,0821.8,5.00,000.00,024.1,023.5,000.0,032.3,025.9,024.4,0000.0,0012.95,0004.60,0003.44
2024-05-05 16:13:00,SystemResetWarning,0821.8,5.00,000.00,024.1,023.5,000.0,032.4,025.9,024.4,0000.0,0013.73,0004.60,0003.44
2024-05-05 16:14:00,SystemResetWarning,0821.8,5.01,000.00,024.1,023.5,000.0,032.4,025.9,024.4,0000.0,0013.86,0004.55,0003.43
2024-05-05 16:15:00,SystemResetWarning,0821.8,5.00,000.00,024.1,023.6,000.0,032.4,025.9,024.4,0000.0,0013.97,0004.52,0003.41
2024-05-05 16:16:00,SystemResetWarning,0821.8,4.99,000.00,024.1,023.6,000.0,032.4,025.9,024.4,0000.0,0014.46,0004.48,0003.40
2024-05-05 16:17:00,SystemResetWarning,0821.8,4.99,000.00,024.1,023.6,000.0,032.4,025.9,024.4,0000.0,0014.72,0004.39,0003.39
2024-05-05 16:18:00,SystemResetWarning,0821.8,5.00,000.00,024.2,023.6,000.0,032.4,025.9,024.5,0000.0,0014.48,0004.37,0003.39
2024-05-05 16:19:00,SystemResetWarning,0821.7,5.01,000.00,024.2,023.6,000.0,032.4,025.9,024.3,0000.0,0014.27,0004.41,0003.40
2024-05-05 16:20:00,SystemResetWarning,0821.7,5.00,000.00,024.2,023.6,000.0,032.4,025.9,024.3,0000.0,0014.57,0004.38,0003.40
2024-05-05 16:21:00,SystemResetWarning,0821.8,4.99,000.00,024.2,023.6,000.0,032.4,026.0,024.3,0000.0,0014.83,0004.39,0003.41
2024-05-05 16:22:00,SystemResetWarning,0821.8,4.99,000.00,024.2,023.6,000.0,032.4,026.0,024.4,0000.0,0014.56,0004.34,0003.40
2024-05-05 16:23:00,SystemResetWarning,0821.8,5.01,000.00,024.2,023.7,000.0,032.4,026.0,024.2,0000.0,0013.49,0004.23,0003.41
2024-05-05 16:24:00,SystemResetWarning,0821.8,5.00,000.00,024.2,023.7,000.0,032.4,026.0,024.2,0000.0,0013.14,0004.22,0003.40
2024-05-05 16:25:00,SystemResetWarning,0821.7,4.99,000.00,024.2,023.7,000.0,032.5,026.0,024.2,0000.0,0012.56,0004.23,0003.40
2024-05-05 16:26:00,SystemResetWarning,0821.6,4.99,000.00,024.3,023.7,000.0,032.5,026.0,024.0,0000.0,0012.33,0004.23,0003.40
2024-05-05 16:27:00,SystemResetWarning,0821.6,5.00,000.00,024.3,023.7,000.0,032.5,026.0,024.0,0000.0,0011.98,0004.24,0003.40
2024-05-05 16:28:00,SystemResetWarning,0821.6,5.01,000.00,024.3,023.7,000.0,032.5,026.0,024.0,0000.0,0011.33,0004.24,0003.39
2024-05-05 16:29:00,SystemResetWarning,0821.6,5.01,000.00,024.3,023.7,000.0,032.5,026.1,024.0,0000.0,0011.74,0004.27,0003.40
2024-05-05 16:30:00,SystemResetWarning,0821.6,5.01,000.00,024.3,023.7,000.0,032.5,026.1,024.2,0000.0,0011.42,0004.26,0003.40
2024-05-05 16:31:00,SystemResetWarning,0821.6,4.99,000.00,024.3,023.8,000.0,032.5,026.1,024.1,0000.0,0011.61,0004.35,0003.40
2024-05-05 16:32:00,SystemResetWarning,0822.0,4.99,000.00,024.3,023.8,000.0,032.5,026.1,024.1,0000.0,0013.14,0004.36,0003.40
2024-05-05 16:33:00,SystemResetWarning,0822.0,5.00,000.00,024.3,023.8,000.0,032.5,026.1,024.2,0000.0,0013.79,0004.39,0003.40
2024-05-05 16:34:00,SystemResetWarning,0822.0,5.01,000.00,024.3,023.8,000.0,032.6,026.1,024.2,0000.0,0014.38,0004.46,0003.43
2024-05-05 16:35:00,SystemResetWarning,0822.0,5.00,000.00,024.4,023.8,000.0,032.6,026.1,024.4,0000.0,0015.52,0004.49,0003.44
2024-05-05 16:36:00,SystemResetWarning,0822.0,5.00,000.00,024.4,023.8,000.0,032.6,026.1,024.2,0000.0,0015.58,0004.49,0003.45
2024-05-05 16:37:00,SystemResetWarning,0822.0,5.00,000.00,024.4,023.8,000.0,032.6,026.1,024.3,0000.0,0015.03,0004.52,0003.47
2024-05-05 16:38:00,SystemResetWarning,0822.0,4.99,000.00,024.4,023.8,000.0,032.6,026.1,024.5,0000.0,0015.04,0004.58,0003.49
2024-05-05 16:39:00,SystemResetWarning,0821.8,4.99,000.00,024.4,023.8,000.0,032.6,026.2,024.6,0000.0,0015.07,0004.62,0003.53
2024-05-05 16:40:00,SystemResetWarning,0821.9,5.01,000.00,024.4,023.8,000.0,032.6,026.2,024.6,0000.0,0016.01,0004.68,0003.55
2024-05-05 16:41:00,SystemResetWarning,0822.1,5.00,000.00,024.4,023.8,000.0,032.7,026.2,024.7,0000.0,0017.84,0004.67,0003.57
2024-05-05 16:42:00,SystemResetWarning,0822.0,5.01,000.00,024.4,023.8,000.0,032.7,026.2,024.6,0000.0,0018.35,0004.68,0003.60
2024-05-05 16:43:00,SystemResetWarning,0821.5,5.00,000.00,024.4,023.9,000.0,032.7,026.2,024.5,0000.0,0017.12,0004.72,0003.64
2024-05-05 16:44:00,SystemResetWarning,0821.5,4.98,000.00,024.4,023.9,000.0,032.7,026.2,024.5,0000.0,0017.61,0004.78,0003.68
2024-05-05 16:45:00,SystemResetWarning,0822.0,5.00,000.00,024.4,023.9,000.0,032.7,026.2,024.4,0000.0,0017.98,0004.82,0003.70
2024-05-05 16:46:00,SystemResetWarning,0822.0,5.01,000.00,024.5,023.9,000.0,032.7,026.2,024.5,0000.0,0018.98,0004.84,0003.72
2024-05-05 16:47:00,SystemResetWarning,0821.9,5.00,000.00,024.5,023.9,000.0,032.7,026.2,024.5,0000.0,0019.14,0004.87,0003.74
2024-05-05 16:48:00,SystemResetWarning,0822.1,5.01,000.00,024.5,023.9,000.0,032.7,026.2,024.4,0000.0,0019.57,0004.94,0003.76
2024-05-05 16:49:00,SystemResetWarning,0821.6,5.01,000.00,024.5,023.9,000.0,032.7,026.3,024.6,0000.0,0019.96,0004.92,0003.76
2024-05-05 16:50:00,SystemResetWarning,0821.6,5.00,000.00,024.5,023.9,000.0,032.7,026.3,024.6,0000.0,0020.08,0004.95,0003.76
2024-05-05 16:51:00,SystemResetWarning,0821.7,4.99,000.00,024.5,023.9,000.0,032.7,026.3,024.6,0000.0,0019.34,0004.95,0003.76
2024-05-05 16:52:00,SystemResetWarning,0822.0,4.99,000.00,024.5,023.9,000.0,032.8,026.3,024.6,0000.0,0018.90,0004.97,0003.77
2024-05-05 16:53:00,SystemResetWarning,0822.0,5.00,000.00,024.5,023.9,000.0,032.8,026.3,024.7,0000.0,0018.78,0005.02,0003.78
2024-05-05 16:54:00,SystemResetWarning,0821.8,5.02,000.00,024.5,024.0,000.0,032.8,026.3,024.7,0000.0,0018.48,0005.00,0003.79
2024-05-05 16:55:00,SystemResetWarning,0821.7,5.00,000.00,024.5,024.0,000.0,032.8,026.3,024.6,0000.0,0017.73,0005.02,0003.81
2024-05-05 16:56:00,SystemResetWarning,0821.4,4.98,000.00,024.6,024.0,000.0,032.8,026.3,024.8,0000.0,0017.37,0005.03,0003.83
2024-05-05 16:57:00,SystemResetWarning,0821.3,4.99,000.00,024.6,024.0,000.0,032.8,026.3,024.7,0000.0,0015.61,0005.03,0003.84
2024-05-05 16:58:00,SystemResetWarning,0821.3,5.02,000.00,024.6,024.0,000.0,032.8,026.3,024.7,0000.0,0014.75,0005.06,0003.86
2024-05-05 16:59:00,SystemResetWarning,0821.3,5.00,000.00,024.6,024.0,000.0,032.8,026.3,024.9,0000.0,0015.23,0005.11,0003.87
